Regional Weather Roundup
Issued by NWS Goodland, KS

Home | Current Version | Previous Version | Text Only | Print | Product List | Glossary On
Versions: 1 2 3 4 5 6 7 8 9 10 11 12 13 14 15 16 17 18 19 20 21 22 23 24 25 26 27 28 29 30 31 32 33 34 35 36 37 38 39 40 41 42 43 44 45 46 47 48 49 50
000
ASUS43 KGLD 031108
RWRGLD

GOODLAND FORECAST AREA HOURLY WEATHER ROUNDUP
NATIONAL WEATHER SERVICE GOODLAND KS
500 AM MDT SUN MAY 03 2015

...OFFICIAL OBSERVATIONS...

CITY           SKY/WX    TMP DP  RH WIND       PRES   REMARKS
GOODLAND KS    PTCLDY    52  44  74 W10       29.84R
HILL CITY KS   MOCLDY    62  47  57 SW5       29.81R
IMPERIAL NEB   CLEAR     52  41  66 W5        29.79S
MCCOOK NEB     PTCLDY    53  44  71 W5        29.77S
AKRON CO       CLEAR     52  41  66 W16       29.88S
BURLINGTON CO  CLEAR     50  42  74 W13       29.85F
LIMON CO       CLEAR     43  38  82 N9        29.93S
$$

...UNOFFICIAL OBSERVATIONS...

CITY           SKY/WX    TMP DP  RH WIND       PRES   REMARKS
COLBY KS       CLEAR     55  48  76 S10       29.83R
GOVE KS          N/A     58  32  37 MISG        N/A
LENORA KS        N/A     61  32  33 MISG        N/A
NORTON KS      CLEAR     57  43  58 W9        29.75S
SHARON SPRINGS   N/A     53  46  76 MISG        N/A
KIT CARSON CO    N/A     48  42  79 MISG        N/A
YUMA CO          N/A     48  43  84 N10         N/A
$$



USA.gov is the U.S. government's official web portal to all federal, state and local government web resources and services.